N4SZO-7 Weather Reports


time (UTC)temp
F
wind
direction
speed
knots
gust
knots
rain 1hr
in
rain 24hr
in
rain mn
in
humidity
%
barometer
mb
20260504050558 60 267 0.9 2.6 0.00 0.00 0.00 71 1020.6
20260504045822 60 257 1.7 2.6 0.00 0.00 0.00 70 1020.6
20260504045325 61 258 1.7 2.6 0.00 0.00 0.00 70 1020.7
20260504044816 61 262 0.9 1.7 0.00 0.00 0.00 68 1020.7
20260504044057 61 268 0.9 2.6 0.00 0.00 0.00 68 1020.5
20260504043557 61 263 1.7 2.6 0.00 0.00 0.00 68 1020.7
20260504043057 61 277 0.9 1.7 0.00 0.00 0.00 67 1020.6
20260504042558 61 267 1.7 3.5 0.00 0.00 0.00 68 1020.6
20260504042320 61 249 1.7 3.5 0.00 0.00 0.00 67 1020.7
20260504041823 61 259 0.9 2.6 0.00 0.00 0.00 67 1020.5
20260504041058 62 266 0.9 2.6 0.00 0.00 0.00 67 1020.7
20260504040558 62 272 1.7 2.6 0.00 0.00 0.00 66 1020.6
20260504040057 62 255 0.9 2.6 0.00 0.00 0.00 67 1021.0
20260504035558 62 248 0.9 2.6 0.00 0.00 0.00 65 1020.7
20260504035057 61 271 0.9 2.6 0.00 0.00 0.00 67 1020.6
20260504034557 62 263 1.7 3.5 0.00 0.00 0.00 67 1020.7
20260504034057 62 266 1.7 3.5 0.00 0.00 0.00 66 1020.7
20260504033557 62 258 1.7 2.6 0.00 0.00 0.00 67 1020.4
20260504033319 61 245 1.7 2.6 0.00 0.00 0.00 67 1020.5
20260504032558 61 277 0.9 2.6 0.00 0.00 0.00 66 1020.4
20260504032057 62 275 1.7 2.6 0.00 0.00 0.00 67 1020.5
20260504031820 62 253 1.7 2.6 0.00 0.00 0.00 67 1020.4
20260504031057 62 293 1.7 2.6 0.00 0.00 0.00 67 1020.5
20260504030057 62 263 0.9 1.7 0.00 0.00 0.00 65 1020.4
20260504025558 63 274 0.0 1.7 0.00 0.00 0.00 64 1020.3
20260504025057 63 269 0.9 2.6 0.00 0.00 0.00 64 1020.5
20260504024557 63 262 0.9 2.6 0.00 0.00 0.00 61 1020.5
20260504024318 64 243 1.7 2.6 0.00 0.00 0.00 61 1020.5
20260504023557 64 267 0.9 2.6 0.00 0.00 0.00 61 1020.5
20260504023110 64 252 1.7 3.5 0.00 0.00 0.00 60 1020.5
20260504022557 64 266 0.9 3.5 0.00 0.00 0.00 60 1020.6
20260504022057 64 258 1.7 3.5 0.00 0.00 0.00 60 1020.5
20260504021557 64 267 1.7 2.6 0.00 0.00 0.00 59 1020.4
20260504021057 64 263 1.7 2.6 0.00 0.00 0.00 60 1020.5
20260504020558 64 261 0.9 3.5 0.00 0.00 0.00 60 1020.3
20260504020057 64 253 1.7 3.5 0.00 0.00 0.00 60 1020.4
20260504015557 64 267 1.7 2.6 0.00 0.00 0.00 61 1020.1
20260504015057 64 246 1.7 2.6 0.00 0.00 0.00 60 1020.3
20260504014818 65 227 1.7 1.7 0.00 0.00 0.00 60 1020.2
20260504014057 65 281 0.9 1.7 0.00 0.00 0.00 59 1020.1
20260504013604 65 285 0.9 1.7 0.00 0.00 0.00 59 1019.8
20260504013314 65 242 0.0 1.7 0.00 0.00 0.00 58 1019.8
20260504012558 66 309 0.0 1.7 0.00 0.00 0.00 56 1019.9
20260504012057 66 284 0.9 1.7 0.00 0.00 0.00 56 1019.7
20260504011558 66 238 1.7 1.7 0.00 0.00 0.00 56 1019.8
20260504011057 67 261 0.9 2.6 0.00 0.00 0.00 56 1019.7
20260504010814 67 256 1.7 2.6 0.00 0.00 0.00 54 1019.8
20260504010057 67 269 0.9 2.6 0.00 0.00 0.00 53 1019.6
20260504005557 68 236 0.9 2.6 0.00 0.00 0.00 53 1019.5
20260504005057 68 306 0.9 2.6 0.00 0.00 0.00 52 1019.4
20260504004557 68 272 1.7 2.6 0.00 0.00 0.00 52 1019.8
20260504004057 69 307 0.0 2.6 0.00 0.00 0.00 51 1019.7
20260504003557 69 226 0.9 2.6 0.00 0.00 0.00 51 1019.5
20260504003104 69 235 0.9 1.7 0.00 0.00 0.00 50 1019.4
20260504002557 70 295 0.9 3.5 0.00 0.00 0.00 50 1019.4
20260504002057 70 230 0.9 4.3 0.00 0.00 0.00 49 1019.3
20260504001057 71 290 0.0 3.5 0.00 0.00 0.00 46 1019.1
20260504000604 73 260 0.9 4.3 0.00 0.00 0.00 45 1019.4
20260504000317 73 266 0.0 4.3 0.00 0.00 0.00 44 1019.2
20260503235557 74 240 2.6 4.3 0.00 0.00 0.00 42 1019.2
20260503235057 76 266 0.0 4.3 0.00 0.00 0.00 39 1019.1
20260503234559 76 230 1.7 4.3 0.00 0.00 0.00 35 1019.0
20260503234057 76 217 3.5 4.3 0.00 0.00 0.00 34 1019.0
20260503233557 76 301 1.7 3.5 0.00 0.00 0.00 34 1019.3
20260503233057 76 249 1.7 3.5 0.00 0.00 0.00 34 1019.2
20260503232058 76 227 0.0 3.5 0.00 0.00 0.00 34 1019.3
20260503231557 77 210 0.9 6.1 0.00 0.00 0.00 34 1019.2
20260503231057 77 237 3.5 6.1 0.00 0.00 0.00 33 1019.2
20260503230558 78 198 0.9 5.2 0.00 0.00 0.00 33 1019.2
20260503230057 79 336 0.9 3.5 0.00 0.00 0.00 33 1019.1
20260503225557 78 325 0.9 3.5 0.00 0.00 0.00 33 1019.3
20260503225057 78 329 0.0 1.7 0.00 0.00 0.00 33 1019.1
20260503224557 78 315 0.0 2.6 0.00 0.00 0.00 32 1019.1
20260503224057 78 237 0.0 4.3 0.00 0.00 0.00 32 1019.1
20260503223823 77 224 0.0 4.3 0.00 0.00 0.00 35 1019.3
20260503223057 77 310 1.7 5.2 0.00 0.00 0.00 32 1019.2
20260503222557 77 313 1.7 5.2 0.00 0.00 0.00 32 1019.4
20260503222057 79 247 4.3 4.3 0.00 0.00 0.00 31 1019.3
20260503221558 79 11 0.0 4.3 0.00 0.00 0.00 32 1019.5
20260503221057 78 1 0.9 4.3 0.00 0.00 0.00 31 1019.4
20260503220557 78 327 2.6 3.5 0.00 0.00 0.00 31 1019.2
20260503220324 78 355 1.7 4.3 0.00 0.00 0.00 30 1019.3
20260503215557 79 350 1.7 4.3 0.00 0.00 0.00 29 1019.3
20260503215057 80 309 1.7 7.0 0.00 0.00 0.00 30 1019.3
20260503214558 79 233 3.5 7.0 0.00 0.00 0.00 29 1019.5
20260503214057 79 284 1.7 6.1 0.00 0.00 0.00 30 1019.5
20260503213828 79 167 0.9 5.2 0.00 0.00 0.00 32 1019.5
20260503213323 79 236 2.6 5.2 0.00 0.00 0.00 30 1019.4
20260503212604 81 348 1.7 7.0 0.00 0.00 0.00 30 1019.6
20260503212057 80 227 0.0 7.0 0.00 0.00 0.00 32 1019.5
20260503211557 79 210 1.7 3.5 0.00 0.00 0.00 30 1019.6
20260503211057 79 40 0.0 4.3 0.00 0.00 0.00 30 1019.9
20260503210604 79 325 2.6 4.3 0.00 0.00 0.00 30 1019.8
20260503210058 80 112 0.9 4.3 0.00 0.00 0.00 31 1019.8
20260503205557 80 182 0.9 4.3 0.00 0.00 0.00 29 1019.8
20260503205057 81 57 0.9 5.2 0.00 0.00 0.00 30 1020.0
20260503204557 80 15 0.9 5.2 0.00 0.00 0.00 30 1020.1
20260503204057 80 298 2.6 7.8 0.00 0.00 0.00 29 1020.2
20260503203557 80 344 0.9 7.8 0.00 0.00 0.00 29 1020.3
20260503203057 80 202 1.7 7.0 0.00 0.00 0.00 31 1020.5
20260503202825 79 306 0.0 4.3 0.00 0.00 0.00 30 1020.5
20260503202057 79 217 0.9 4.3 0.00 0.00 0.00 31 1020.4
20260503201604 78 301 1.7 5.2 0.00 0.00 0.00 31 1020.6
20260503201057 78 212 2.6 9.6 0.00 0.00 0.00 30 1020.6
20260503200557 78 235 4.3 9.6 0.00 0.00 0.00 32 1020.6
20260503200318 78 225 2.6 9.6 0.00 0.00 0.00 30 1020.9
20260503195557 79 22 1.7 6.1 0.00 0.00 0.00 29 1021.0
20260503195057 80 25 0.0 3.5 0.00 0.00 0.00 31 1020.8
20260503194605 79 299 0.9 5.2 0.00 0.00 0.00 30 1021.1
20260503194104 77 233 3.5 6.1 0.00 0.00 0.00 30 1021.1
20260503193604 77 265 0.9 6.1 0.00 0.00 0.00 30 1021.0
20260503193326 79 246 4.3 4.3 0.00 0.00 0.00 31 1021.1
20260503192557 79 179 1.7 2.6 0.00 0.00 0.00 30 1021.1
20260503192057 79 148 1.7 7.8 0.00 0.00 0.00 31 1021.3
20260503191815 78 86 2.6 7.8 0.00 0.00 0.00 31 1021.3
20260503191057 79 8 0.9 7.0 0.00 0.00 0.00 29 1021.7
20260503190557 78 223 0.9 7.0 0.00 0.00 0.00 34 1021.6
20260503185558 78 30 0.0 7.0 0.00 0.00 0.00 31 1021.8
20260503185057 77 154 0.9 7.0 0.00 0.00 0.00 32 1021.8
20260503184557 78 209 1.7 8.7 0.00 0.00 0.00 30 1022.0
20260503184057 77 261 4.3 8.7 0.00 0.00 0.00 30 1022.2
20260503183557 78 341 1.7 5.2 0.00 0.00 0.00 33 1022.3
20260503183322 78 184 0.0 5.2 0.00 0.00 0.00 30 1022.3
20260503182604 78 234 2.6 5.2 0.00 0.00 0.00 32 1022.1
20260503182057 77 83 3.5 5.2 0.00 0.00 0.00 32 1022.3
20260503181558 77 294 1.7 4.3 0.00 0.00 0.00 32 1022.4
20260503181057 77 318 0.9 6.1 0.00 0.00 0.00 32 1022.6
20260503180557 76 209 1.7 6.1 0.00 0.00 0.00 29 1022.6
20260503180057 76 315 1.7 4.3 0.00 0.00 0.00 30 1022.7
20260503175819 76 330 1.7 4.3 0.00 0.00 0.00 33 1022.9
20260503175057 76 259 0.9 7.8 0.00 0.00 0.00 29 1022.9
20260503174057 76 215 3.5 4.3 0.00 0.00 0.00 31 1022.7
20260503173557 75 290 4.3 7.0 0.00 0.00 0.00 32 1022.9
20260503173105 75 350 1.7 7.8 0.00 0.00 0.00 31 1023.0
20260503172557 76 223 2.6 3.5 0.00 0.00 0.00 33 1022.9
20260503172057 75 298 3.5 3.5 0.00 0.00 0.00 34 1023.2
20260503171557 75 233 0.9 3.5 0.00 0.00 0.00 35 1023.1
20260503171058 74 339 1.7 3.5 0.00 0.00 0.00 33 1023.1
20260503170557 74 281 1.7 3.5 0.00 0.00 0.00 34 1023.2
20260503150557 70 210 0.9 4.3 0.00 0.00 0.00 38 1023.9
20260503150317 69 248 0.0 4.3 0.00 0.00 0.00 41 1023.8
20260503131057 61 236 1.7 2.6 0.00 0.00 0.00 59 1022.9
20260503130557 60 298 0.0 2.6 0.00 0.00 0.00 61 1022.9
20260503120104 51 274 1.7 2.6 0.00 0.01 0.00 81 1022.4
20260503110558 49 304 0.9 2.6 0.00 0.02 0.00 84 1022.1
20260503090104 51 320 1.7 3.5 0.00 0.10 0.00 79 1021.2
20260503081057 51 343 0.9 4.3 0.00 0.14 0.00 80 1020.7
20260503080822 51 288 0.9 2.6 0.00 0.14 0.00 80 1021.0
20260503072557 51 269 0.0 2.6 0.00 0.20 0.00 77 1020.7
20260503072058 51 221 0.0 2.6 0.00 0.20 0.00 77 1020.6
20260503071557 51 284 1.7 1.7 0.00 0.21 0.00 76 1020.6
20260503071057 51 281 0.9 1.7 0.00 0.22 0.00 76 1020.6
20260503070558 51 252 0.0 1.7 0.00 0.22 0.00 75 1020.6
20260503055057 55 276 1.7 1.7 0.00 0.37 0.00 63 1020.4
20260503054058 56 242 0.0 1.7 0.00 0.40 0.00 60 1020.4
20260503053557 56 295 0.9 1.7 0.00 0.42 0.00 59 1020.2
20260503053057 56 272 0.9 1.7 0.00 0.44 0.00 58 1020.3
20260503052604 56 277 0.0 1.7 0.00 0.46 0.00 59 1020.2
20260503052057 56 282 0.0 1.7 0.00 0.48 0.00 57 1020.3